Regional Weather Roundup
Issued by NWS Charleston, SC

Current Version | Previous Version | Graphics & Text | Print | Product List | Glossary On
Versions: 1 2 3 4 5 6 7 8 9 10 11 12 13 14 15 16 17 18 19 20 21 22 23 24 25 26 27 28 29 30 31 32 33 34 35 36 37 38 39 40 41 42 43 44 45 46 47 48 49 50
000 ASUS42 KCHS 301225 RWRCHS REGIONAL WEATHER ROUNDUP NATIONAL WEATHER SERVICE CHARLESTON SC 800 AM EDT SAT AUG 30 2014 NOTE: "FAIR" INDICATES FEW OR NO CLOUDS BELOW 12,000 FEET WITH NO SIGNIFICANT WEATHER AND/OR OBSTRUCTIONS TO VISIBILITY. NOT ALL STATIONS ARE QUALITY CONTROLLED BY THE NATIONAL WEATHER SERVICE. USE DATA WITH CAUTION...ESPECIALLY DEWPOINT OBSERVATIONS. SCZ027-030-031-034>040-042>050-301300- ...SOUTH CAROLINA... CITY SKY/WX TMP DP RH WIND PRES REMARKS N CHARLESTON MOSUNNY 79 75 87 CALM 30.17R 6HR MIN TEMP: 74; 6HR MAX TEMP: 79; WATERFRONT PRK N/A 81 N/A N/A NE6 N/A FORT JOHNSON NOT AVBL MOUNT PLEASANT LGT RAIN 75 73 94 CALM 30.17S JOHNS ISLAND SUNNY 81 79 94 CALM 30.17R PINOPOLIS N/A 79 75 89 E2 30.08F MONCKS CORNER NOT AVBL SUMMERVILLE FAIR 72 72 100 CALM 30.18S BEAUFORT MCAS SUNNY 79 75 87 CALM 30.16R 6HR MIN TEMP: 74; 6HR MAX TEMP: 79; BEAUFORT ARPT FAIR 79 79 100 CALM 30.15S HILTON HEAD IS SUNNY 82 73 74 CALM 30.16 GEORGETOWN NOT AVBL WALTERBORO SUNNY 77 N/A N/A E5 30.17S ORANGEBURG MOSUNNY 73 70 90 CALM 30.18R 6HR MIN TEMP: 70; 6HR MAX TEMP: 74; BARNWELL FAIR 75 72 88 CALM 30.18S AIKEN PTSUNNY 73 73 100 CALM 30.22R MANNING CLOUDY 73 N/A N/A NE3 30.18S VSB 1/2 KINGSTREE NOT AVBL COLUMBIA MOSUNNY 74 71 91 CALM 30.18R FOG 6HR MIN TEMP: 72; 6HR MAX TEMP: 77; SUMTER FOG 73 73 100 NE5 30.18R VSB 1/4 6HR MIN TEMP: 72; 6HR MAX TEMP: 76; FLORENCE CLOUDY 75 73 93 CALM 30.20R FOG 6HR MIN TEMP: 72; 6HR MAX TEMP: 75; MYRTLE BEACH MOSUNNY 75 73 94 VRB6 30.19R N MYRTLE BEACH CLOUDY 76 73 91 N3 30.19R 6HR MIN TEMP: 74; 6HR MAX TEMP: 81; 6HR PCP: TRACE; $$ GAZ063-065-086>088-099>101-113>116-118-119-134-136>141-150-301300- ...GEORGIA... CITY SKY/WX TMP DP RH WIND PRES REMARKS SAVANNAH ARPT MOSUNNY 76 74 93 CALM 30.16R 6HR MIN TEMP: 74; 6HR MAX TEMP: 77; HUNTER AAF SUNNY 79 76 92 CALM 30.13R 6HR MIN TEMP: 74; 6HR MAX TEMP: 80; FORT STEWART SUNNY 75 34 22 CALM 30.14R 6HR MIN TEMP: 71; 6HR MAX TEMP: 75; STATESBORO NOT AVBL SYLVANIA SUNNY 69 69 100 SE3 30.17S CLAXTON NOT AVBL THOMSON SUNNY 76 76 100 CALM 30.21R AUGUSTA-BUSH SUNNY 71 70 96 CALM 30.16R 6HR MIN TEMP: 66; 6HR MAX TEMP: 72; AUGUSTA-DANIEL SUNNY 75 72 90 SE5 30.18R SWAINSBORO FAIR 77 77 100 E3 30.17R VIDALIA N/A 77 73 88 E3 30.16R ALMA SUNNY 74 73 97 CALM 30.13S FOG 6HR MIN TEMP: 71; 6HR MAX TEMP: 77; WAYCROSS SUNNY 79 78 94 CALM 30.15R JESUP N/A 77 75 94 CALM 30.15R BRUNSWICK SUNNY 77 73 88 CALM 30.14S SAINT SIMONS PTSUNNY 78 75 90 CALM 30.13R 6HR MIN TEMP: 75; 6HR MAX TEMP: 81; $$ SCZ027-028-034-036>038-045-046-048>050-GAZ119-141-301300- ...LAKE AND SUPPLEMENTAL COASTAL OBSERVATIONS... STATION/POSITION TIME TEMP WIND PRES WAVE SWELL AIR SEA DIR/SP/G HT/PER HT/PER/DIR (UTC) (F) (DEG/KT/KT) (MB) (FT/S) (FT/S/D) UPR LAKE MARION NOT AVBL WINYAH BAY 1200 76 340/ 1 1022.0R LAKE MURRAY 1100 75 90/ 4/ 6 1021.3R ACE BASIN NERRS 1200 75 CALM 1021.0S FORT PULASKI 1200 84 100/ 3/ 3 1021.0R SAPELO ISLAND 1200 78 40/ 3 1021.0R $$ ANZ835-935-AMZ111-154-330-350-352-354-374-450-454-472-301300- ...C-MAN AND BUOY OBSERVATIONS... STATION/POSITION TIME TEMP WIND PRES WAVE SWELL AIR SEA DIR/SP/G HT/PER HT/PER/DIR (UTC) (F) (DEG/KT/KT) (MB) (FT/S) (FT/S/D) FOLLY BEACH CMAN 1200 81 50/ 8/ 9 1021.8R BUOY 41004 1200 82 83 50/ 8/ 10 1020.9S 3/ 8 3/ 8 BUOY 41008 1200 83 84 130/ 6/ 6 1020.4R 2/ 8 2/110/ 8 5E ST. MARYS GA 1200 83 N/A 2/ 8 FRYING PAN BUOY NOT AVBL BUOY 41025 1200 80 40/ 6/ 10 1022.9R 4/ 7 3/120/ 7 CAPE LOOKOUT NC 1200 80 40/ 6/ 7 1022.6S BUOY 41002 1150 78 82 130/ 10/ 12 1023.2R 3/ 8 3/120/ 8 BUOY 41010 1200 83 84 180/ 8/ 10 1021.4R 3/ 8 3/100/ 8 BUOY 41012 NOT AVBL ST AUGUSTINE FL 1200 76 CALM / 1 1021.3R CAPERS NEARSHORE 1100 81 80/ 6/ 6 N/A FRIPP NEARSHORE NOT AVBL $$

USA.gov is the U.S. government's official web portal to all federal, state and local government web resources and services.